Oaxaca, Mexico

8:23 PM CDT on October 23, 2017 (GMT -0500)
Xoxocotlan International

Weather History for MMOX - October, 2012

Change the Weather History Date:

Wednesday, October 31, 2012

  Actual Average Record
Temperature  
Mean Temperature 68 °F -  
Max Temperature 80 °F 78 °F 87 °F (1997)
Min Temperature 56 °F 50 °F 42 °F (1999)
Cooling Degree Days 3    
Growing Degree Days 18 (Base 50)    
Moisture  
Dew Point 54 °F    
Average Humidity 68    
Maximum Humidity 94    
Minimum Humidity 27    
Precipitation  
Precipitation 0.24 in - - ()
Sea Level Pressure  
Sea Level Pressure 30.08 in    
Wind  
Wind Speed 4 mph ()    
Max Wind Speed 16 mph    
Max Gust Speed -    
Visibility 8.1 miles    
Events Rain    
Averages and records for this station are not official NWS values.
T = Trace of Precipitation, MM = Missing Value Source: Averaged Metar Reports

Daily Weather History Graph

Daily Weather History Graph

Search for Another Location

Airport or City:

Trip Planner

Search our weather history database for the weather conditions in past years. The results will help you decide how hot, cold, wet, or windy it might be!

Date:

Astronomy

Oct. 31, 2012 Rise Set
Actual Time 6:24 AM CST 5:55 PM CST
Civil Twilight 6:02 AM CST 6:18 PM CST
Nautical Twilight 5:36 AM CST 6:43 PM CST
Astronomical Twilight 5:11 AM CST 7:09 PM CST
Moon 7:24 PM CST (10/31) 7:51 AM CST (10/31)
Length of Visible Light 12h 15m
Length of Day
11h 31m
Full, 97% of the Moon is Illuminated
Oct 31
Full
Nov 6
Last Quarter
Nov 13
New
Nov 20
First Quarter
Nov 28
Full

Hourly Weather History & Observations

Time (CST) Temp. Dew Point Humidity Pressure Visibility Wind Dir Wind Speed Gust Speed Precip Events Conditions
2:55 AM 60 °F 56 °F 81% 30.02 in 6 mi NNW 2.2 mph - -   Clear
5:50 AM 57 °F 54 °F 88% 30.04 in 6 mi NE 2.2 mph - -   Partly Cloudy
6:04 AM 55.4 °F 53.6 °F 94% 29.96 in 8.0 mi NNW 4.6 mph - N/A   Mostly Cloudy
6:41 AM 57.2 °F 53.6 °F 88% 30.24 in 10.0 mi NW 4.6 mph - N/A   Mostly Cloudy
7:41 AM 59.0 °F 53.6 °F 82% 30.25 in 10.0 mi North 5.8 mph - N/A   Mostly Cloudy
8:30 AM 63 °F 55 °F 67% 30.08 in 12 mi NE 2.2 mph - -   Partly Cloudy
8:52 AM 62.6 °F 55.4 °F 77% 30.00 in 10.0 mi NNE 5.8 mph - N/A   Mostly Cloudy
9:46 AM 69.8 °F 53.6 °F 56% 30.28 in 10.0 mi North 4.6 mph - N/A   Mostly Cloudy
10:54 AM 71.6 °F 53.6 °F 53% 30.26 in 10.0 mi SSW 8.1 mph - N/A   Mostly Cloudy
11:30 AM 78 °F 55 °F 34% 30.01 in 7 mi NE 2.2 mph - -   Partly Cloudy
11:43 AM 73.4 °F 53.6 °F 50% 29.89 in 10.0 mi South 5.8 mph - N/A   Mostly Cloudy
12:42 PM 73.4 °F 48.2 °F 41% 30.19 in 10.0 mi WSW 5.8 mph - N/A   Mostly Cloudy
1:46 PM 75.2 °F 44.6 °F 34% 30.15 in 10.0 mi West 5.8 mph - N/A   Overcast
2:45 PM 75.2 °F 50.0 °F 41% 29.81 in 10.0 mi SSW 5.8 mph - N/A   Overcast
2:50 PM 78 °F 50 °F 27% 29.86 in 7 mi SSW 4.5 mph - -   Partly Cloudy
3:46 PM 75.2 °F 51.8 °F 44% 30.11 in 10.0 mi East 5.8 mph - N/A   Overcast
4:46 PM 69.8 °F 53.6 °F 56% 30.13 in 8.0 mi ESE 11.5 mph - N/A   Overcast
5:01 PM 66.2 °F 55.4 °F 68% 30.15 in 8.0 mi ENE 16.1 mph - N/A Rain Rain
5:48 PM 62.6 °F 57.2 °F 82% 29.94 in 6.0 mi NE 5.8 mph - N/A   Overcast
5:50 PM 64 °F 55 °F 64% 29.88 in 9 mi SW 6.7 mph - - Rain Light Rain
5:54 PM 62.6 °F 55.4 °F 77% 30.18 in 5.0 mi SSW 8.1 mph - N/A Rain Light Rain
6:45 PM 59.0 °F 55.4 °F 88% 30.22 in 6.0 mi South 6.9 mph - N/A Rain Light Rain
7:45 PM 59.0 °F 57.2 °F 94% 30.25 in 6.0 mi South 5.8 mph - N/A   Overcast
8:45 PM 61 °F 57 °F 82% 29.97 in 6 mi NW 2.2 mph - -   Partly Cloudy
8:45 PM 59.0 °F 55.4 °F 88% 30.00 in 6.0 mi Calm Calm - N/A   Overcast
9:45 PM 59.0 °F 57.2 °F 94% 30.28 in 6.0 mi Calm Calm - N/A   Overcast
11:45 PM 60 °F 57 °F 87% 30.00 in 6 mi NE 2.2 mph - -   Partly Cloudy